Newberry, SC

7:38 PM EDT on August 30, 2016 (GMT -0400)
Newberry

Weather History for KEOE - March, 2013

Change the Weather History Date:

Monday, March 25, 2013

  Actual Average (KFDW) Record (KFDW)
Temperature  
Mean Temperature 42 °F -  
Max Temperature 46 °F 67 °F 73 °F (2016)
Min Temperature 37 °F 39 °F 35 °F (2014)
Degree Days  
Heating Degree Days 24    
Moisture  
Dew Point 29 °F    
Average Humidity 62    
Maximum Humidity 100    
Minimum Humidity 43    
Precipitation  
Precipitation 0.00 in - - ()
Sea Level Pressure  
Sea Level Pressure 29.78 in    
Wind  
Wind Speed 13 mph (West)    
Max Wind Speed 28 mph    
Max Gust Speed 39 mph    
Visibility 10 miles    
Events      
Averages and records for this station are not official NWS values.
T = Trace of Precipitation, MM = Missing Value Source: NWS Daily Summary

Daily Weather History Graph

Daily Weather History Graph

Search for Another Location

Airport or City:

Trip Planner

Search our weather history database for the weather conditions in past years. The results will help you decide how hot, cold, wet, or windy it might be!

Date:

Astronomy

Mar. 25, 2013 Rise Set
Actual Time 7:23 AM EDT 7:42 PM EDT
Civil Twilight 6:57 AM EDT 8:07 PM EDT
Nautical Twilight 6:28 AM EDT 8:36 PM EDT
Astronomical Twilight 5:58 AM EDT 9:06 PM EDT
Moon 6:14 PM EDT (3/25) 6:01 AM EDT (3/25)
Length of Visible Light 13h 09m
Length of Day
12h 19m
Waxing Gibbous, 96% of the Moon is Illuminated
Mar 25
Waxing Gibbous
Mar 27
Full
Apr 3
Last Quarter
Apr 10
New
Apr 18
First Quarter

Hourly Weather History & Observations

Time (EDT) Temp. Windchill Dew Point Humidity Pressure Visibility Wind Dir Wind Speed Gust Speed Precip Events Conditions
12:15 AM 42.8 °F - 42.8 °F 100% 29.63 in 5.0 mi Calm Calm - N/A   Overcast
12:35 AM 42.8 °F - 42.8 °F 100% 29.62 in 3.0 mi Calm Calm - N/A   Overcast
12:55 AM 42.8 °F - 42.8 °F 100% 29.62 in 3.0 mi Calm Calm - N/A   Overcast
1:15 AM 42.8 °F 40.1 °F 42.8 °F 100% 29.62 in 4.0 mi SSW 4.6 mph - N/A   Overcast
1:55 AM 42.8 °F 37.0 °F 42.8 °F 100% 29.63 in 7.0 mi WSW 10.4 mph - N/A   Mostly Cloudy
2:15 AM 42.8 °F 36.6 °F 42.8 °F 100% 29.63 in 10.0 mi WSW 11.5 mph 18.4 mph N/A   Scattered Clouds
2:35 AM 42.8 °F 35.8 °F 42.8 °F 100% 29.63 in 10.0 mi WSW 13.8 mph 24.2 mph N/A   Clear
2:55 AM 42.8 °F 35.4 °F 39.2 °F 87% 29.63 in 10.0 mi WSW 15.0 mph 25.3 mph N/A   Clear
3:15 AM 42.8 °F 34.3 °F 35.6 °F 76% 29.63 in 10.0 mi WSW 19.6 mph 27.6 mph N/A   Clear
3:35 AM 41.0 °F 32.8 °F 33.8 °F 76% 29.63 in 10.0 mi WSW 16.1 mph 28.8 mph N/A   Clear
3:55 AM 41.0 °F 33.5 °F 33.8 °F 76% 29.63 in 10.0 mi WSW 13.8 mph 21.9 mph N/A   Clear
4:15 AM 41.0 °F 32.5 °F 33.8 °F 76% 29.63 in 10.0 mi WSW 17.3 mph 21.9 mph N/A   Clear
4:55 AM 41.0 °F 33.5 °F 33.8 °F 76% 29.65 in 10.0 mi WSW 13.8 mph 25.3 mph N/A   Clear
5:15 AM 41.0 °F 33.9 °F 33.8 °F 76% 29.66 in 10.0 mi WSW 12.7 mph 21.9 mph N/A   Clear
5:55 AM 39.2 °F 31.6 °F 33.8 °F 81% 29.67 in 10.0 mi WSW 12.7 mph - N/A   Clear
6:35 AM 39.2 °F 31.6 °F 32.0 °F 75% 29.68 in 10.0 mi WSW 12.7 mph - N/A   Clear
6:55 AM 39.2 °F 30.2 °F 32.0 °F 75% 29.69 in 10.0 mi WSW 17.3 mph 24.2 mph N/A   Clear
7:15 AM 39.2 °F 29.8 °F 32.0 °F 75% 29.69 in 10.0 mi WSW 18.4 mph 26.5 mph N/A   Clear
7:35 AM 39.2 °F 30.2 °F 32.0 °F 75% 29.70 in 10.0 mi WSW 17.3 mph 29.9 mph N/A   Clear
7:55 AM 39.2 °F 30.5 °F 32.0 °F 75% 29.71 in 10.0 mi WSW 16.1 mph 23.0 mph N/A   Clear
8:15 AM 41.0 °F 33.5 °F 32.0 °F 70% 29.71 in 10.0 mi WSW 13.8 mph 21.9 mph N/A   Clear
8:35 AM 41.0 °F 33.5 °F 32.0 °F 70% 29.72 in 10.0 mi WSW 13.8 mph 19.6 mph N/A   Clear
8:55 AM 41.0 °F 33.9 °F 32.0 °F 70% 29.73 in 10.0 mi WSW 12.7 mph 17.3 mph N/A   Clear
9:15 AM 42.8 °F 34.5 °F 32.0 °F 66% 29.74 in 10.0 mi West 18.4 mph 25.3 mph N/A   Scattered Clouds
9:35 AM 42.8 °F 34.5 °F 30.2 °F 61% 29.74 in 10.0 mi West 18.4 mph 27.6 mph N/A   Scattered Clouds
9:55 AM 42.8 °F 34.0 °F 28.4 °F 57% 29.75 in 10.0 mi West 20.7 mph 29.9 mph N/A   Scattered Clouds
10:15 AM 44.6 °F 36.6 °F 26.6 °F 49% 29.76 in 10.0 mi West 19.6 mph 35.7 mph N/A   Scattered Clouds
10:35 AM 44.6 °F 35.3 °F 24.8 °F 46% 29.76 in 10.0 mi West 26.5 mph 35.7 mph N/A   Clear
10:55 AM 44.6 °F 36.9 °F 26.6 °F 49% 29.77 in 10.0 mi West 18.4 mph 29.9 mph N/A   Scattered Clouds
11:15 AM 44.6 °F 36.4 °F 26.6 °F 49% 29.78 in 10.0 mi West 20.7 mph 33.4 mph N/A   Mostly Cloudy
11:55 AM 44.6 °F 36.4 °F 26.6 °F 49% 29.80 in 10.0 mi West 20.7 mph 31.1 mph N/A   Mostly Cloudy
12:15 PM 44.6 °F 35.9 °F 26.6 °F 49% 29.81 in 10.0 mi West 23.0 mph 29.9 mph N/A   Overcast
12:35 PM 44.6 °F 36.1 °F 26.6 °F 49% 29.80 in 10.0 mi West 21.9 mph 32.2 mph N/A   Overcast
12:55 PM 44.6 °F 36.9 °F 26.6 °F 49% 29.80 in 10.0 mi West 18.4 mph 35.7 mph N/A   Overcast
1:15 PM 44.6 °F 36.6 °F 26.6 °F 49% 29.81 in 10.0 mi West 19.6 mph 28.8 mph N/A   Overcast
1:35 PM 44.6 °F 36.6 °F 24.8 °F 46% 29.80 in 10.0 mi West 19.6 mph 35.7 mph N/A   Overcast
1:55 PM 44.6 °F 36.6 °F 26.6 °F 49% 29.80 in 10.0 mi West 19.6 mph 26.5 mph N/A   Overcast
2:15 PM 46.4 °F 37.5 °F 24.8 °F 43% 29.80 in 10.0 mi West 27.6 mph 36.8 mph N/A   Overcast
2:35 PM 46.4 °F 39.0 °F 26.6 °F 46% 29.80 in 10.0 mi West 19.6 mph 32.2 mph N/A   Overcast
2:55 PM 46.4 °F 38.5 °F 26.6 °F 46% 29.79 in 10.0 mi West 21.9 mph 33.4 mph N/A   Overcast
3:15 PM 46.4 °F 38.7 °F 26.6 °F 46% 29.79 in 10.0 mi West 20.7 mph 34.5 mph N/A   Mostly Cloudy
3:35 PM 46.4 °F 37.7 °F 24.8 °F 43% 29.79 in 10.0 mi West 26.5 mph 39.1 mph N/A   Mostly Cloudy
4:35 PM 46.4 °F 38.3 °F 24.8 °F 43% 29.81 in 10.0 mi West 23.0 mph 31.1 mph N/A   Unknown
4:55 PM 46.4 °F 38.1 °F 24.8 °F 43% 29.82 in 10.0 mi West 24.2 mph 33.4 mph N/A   Mostly Cloudy
5:15 PM 44.6 °F 36.9 °F 24.8 °F 46% 29.82 in 10.0 mi West 18.4 mph 26.5 mph N/A   Mostly Cloudy
5:35 PM 44.6 °F 37.4 °F 24.8 °F 46% 29.83 in 10.0 mi West 16.1 mph 32.2 mph N/A   Mostly Cloudy
5:55 PM 44.6 °F 36.6 °F 24.8 °F 46% 29.84 in 10.0 mi West 19.6 mph 29.9 mph N/A   Mostly Cloudy
6:15 PM 44.6 °F 36.1 °F 24.8 °F 46% 29.85 in 10.0 mi West 21.9 mph 32.2 mph N/A   Overcast
6:35 PM 44.6 °F 36.4 °F 26.6 °F 49% 29.86 in 10.0 mi West 20.7 mph 28.8 mph N/A   Overcast
6:55 PM 44.6 °F 37.2 °F 24.8 °F 46% 29.87 in 10.0 mi West 17.3 mph 31.1 mph N/A   Mostly Cloudy
7:15 PM 42.8 °F 34.8 °F 24.8 °F 49% 29.88 in 10.0 mi West 17.3 mph 33.4 mph N/A   Scattered Clouds
7:55 PM 41.0 °F 32.8 °F 26.6 °F 57% 29.90 in 10.0 mi West 16.1 mph 21.9 mph N/A   Clear
8:15 PM 41.0 °F 32.2 °F 24.8 °F 53% 29.91 in 10.0 mi West 18.4 mph 28.8 mph N/A   Clear
8:35 PM 41.0 °F 32.8 °F 23.0 °F 49% 29.92 in 10.0 mi West 16.1 mph 27.6 mph N/A   Clear
8:55 PM 41.0 °F 33.5 °F 23.0 °F 49% 29.93 in 10.0 mi West 13.8 mph 32.2 mph N/A   Clear
9:15 PM 39.2 °F 30.5 °F 23.0 °F 52% 29.94 in 10.0 mi West 16.1 mph 25.3 mph N/A   Clear
9:35 PM 37.4 °F 28.5 °F 23.0 °F 56% 29.95 in 10.0 mi West 15.0 mph 21.9 mph N/A   Clear
9:55 PM 37.4 °F 28.9 °F 23.0 °F 56% 29.96 in 10.0 mi West 13.8 mph 25.3 mph N/A   Clear
10:15 PM 37.4 °F 28.2 °F 23.0 °F 56% 29.97 in 10.0 mi West 16.1 mph 20.7 mph N/A   Clear
10:35 PM 37.4 °F 29.3 °F 23.0 °F 56% 29.98 in 10.0 mi West 12.7 mph 20.7 mph N/A   Clear
10:55 PM 37.4 °F 29.8 °F 23.0 °F 56% 29.98 in 10.0 mi West 11.5 mph 19.6 mph N/A   Clear
11:15 PM 37.4 °F 29.3 °F 23.0 °F 56% 29.98 in 10.0 mi West 12.7 mph 21.9 mph N/A   Clear
11:35 PM 37.4 °F 30.3 °F 23.0 °F 56% 29.99 in 10.0 mi West 10.4 mph 20.7 mph N/A   Clear
11:55 PM 37.4 °F 29.3 °F 23.0 °F 56% 29.99 in 10.0 mi West 12.7 mph 19.6 mph N/A   Clear